TimeMST,TemperatureF,Dew PointF,Humidity,Sea Level PressureIn,VisibilityMPH,Wind Direction,Wind SpeedMPH,Gust SpeedMPH,PrecipitationIn,Events,Conditions,WindDirDegrees,DateUTC
12:53 AM,9.0,3.9,80,30.13,10.0,WSW,17.3,-,N/A,,Overcast,240,2012-11-11 07:53:00
1:53 AM,6.1,1.9,83,30.14,10.0,SSW,13.8,-,N/A,,Mostly Cloudy,210,2012-11-11 08:53:00
2:53 AM,7.0,1.9,80,30.14,10.0,SW,16.1,-,N/A,,Overcast,220,2012-11-11 09:53:00
3:53 AM,9.0,3.9,80,30.14,10.0,SSW,13.8,-,N/A,,Overcast,210,2012-11-11 10:53:00
4:53 AM,10.0,3.9,76,30.15,10.0,WSW,15.0,-,N/A,,Overcast,240,2012-11-11 11:53:00
5:53 AM,9.0,3.9,80,30.16,10.0,SW,13.8,-,N/A,,Overcast,230,2012-11-11 12:53:00
6:53 AM,8.1,3.0,80,30.18,10.0,SW,13.8,-,N/A,,Mostly Cloudy,230,2012-11-11 13:53:00
7:53 AM,8.1,3.0,80,30.20,10.0,SW,17.3,-,N/A,,Scattered Clouds,230,2012-11-11 14:53:00
8:53 AM,12.9,5.0,71,30.21,10.0,SW,17.3,-,N/A,,Mostly Cloudy,230,2012-11-11 15:53:00
9:53 AM,12.9,6.1,74,30.21,10.0,SW,16.1,-,N/A,,Scattered Clouds,230,2012-11-11 16:53:00
10:53 AM,15.1,8.1,74,30.21,10.0,SW,17.3,-,N/A,,Partly Cloudy,220,2012-11-11 17:53:00
11:53 AM,19.0,10.0,68,30.19,10.0,SW,16.1,-,N/A,,Clear,230,2012-11-11 18:53:00
12:53 PM,21.0,12.0,68,30.19,10.0,WSW,15.0,-,N/A,,Clear,240,2012-11-11 19:53:00
1:53 PM,27.0,15.1,61,30.19,10.0,WNW,20.7,27.6,N/A,,Partly Cloudy,290,2012-11-11 20:53:00
2:53 PM,27.0,14.0,58,30.20,10.0,WNW,18.4,-,N/A,,Partly Cloudy,290,2012-11-11 21:53:00
3:53 PM,26.1,12.9,58,30.21,10.0,West,20.7,-,N/A,,Clear,280,2012-11-11 22:53:00
4:53 PM,25.0,12.0,58,30.21,10.0,WNW,25.3,-,N/A,,Clear,290,2012-11-11 23:53:00
5:53 PM,24.8,10.4,54,30.07,10.0,West,21.9,-,N/A,,Clear,270,2012-11-12 00:53:00
6:53 PM,18.0,10.0,71,30.27,10.0,WSW,17.3,-,N/A,,Clear,240,2012-11-12 01:53:00
7:53 PM,17.1,9.0,71,30.28,10.0,WSW,19.6,-,N/A,,Clear,240,2012-11-12 02:53:00
8:53 PM,17.1,8.1,68,30.28,10.0,WSW,21.9,-,N/A,,Clear,240,2012-11-12 03:53:00
9:53 PM,16.0,7.0,68,30.29,10.0,WSW,16.1,-,N/A,,Clear,240,2012-11-12 04:53:00
10:53 PM,16.0,7.0,68,30.28,10.0,SW,17.3,-,N/A,,Clear,230,2012-11-12 05:53:00
11:53 PM,16.0,7.0,68,30.27,10.0,WSW,19.6,-,N/A,,Clear,240,2012-11-12 06:53:00